• In Moldova, Republic
  • List of Countries
  • For 7 days
  • Water Temperature
  • Satellite Maps
  • Weather Map
  • Weather Widgets
  • user-avatar
    Login

    Hourly Weather Sumgayit

    Today, 23 July, Sunday

    Time Temperature Precipitation Wind Pressure Humidity
    00:00 +30°C° 0 mm 1 mps 736 mmHg 37%
    01:00 +30°C° 0 mm 1 mps 735 mmHg 37%
    02:00 +29°C° 0 mm 1 mps 735 mmHg 38%
    03:00 +29°C° 0 mm 1 mps 735 mmHg 38%
    04:00 +29°C° 0 mm 1 mps 735 mmHg 38%
    05:00 +30°C° 0 mm 1 mps 735 mmHg 37%
    06:00 +30°C° 0 mm 1 mps 735 mmHg 37%
    07:00 +31°C° 0 mm 2 mps 735 mmHg 34%
    08:00 +34°C° 0 mm 2 mps 735 mmHg 31%
    09:00 +35°C° 0 mm 3 mps 735 mmHg 28%
    10:00 +36°C° 0 mm 3 mps 735 mmHg 26%
    11:00 +37°C° 0 mm 4 mps 735 mmHg 24%
    12:00 +38°C° 0 mm 4 mps 735 mmHg 22%
    13:00 +38°C° 0 mm 4 mps 734 mmHg 22%
    14:00 +40°C° 0 mm 5 mps 734 mmHg 22%
    15:00 +40°C° 0 mm 5 mps 734 mmHg 22%
    16:00 +39°C° 0 mm 5 mps 734 mmHg 24%
    17:00 +37°C° 0 mm 4 mps 734 mmHg 26%
    18:00 +36°C° 0 mm 4 mps 734 mmHg 28%
    19:00 +35°C° 0 mm 5 mps 734 mmHg 33%
    20:00 +33°C° 0 mm 6 mps 734 mmHg 38%
    21:00 +32°C° 0 mm 7 mps 735 mmHg 44%
    22:00 +32°C° 0 mm 8 mps 735 mmHg 45%
    23:00 +32°C° 0 mm 8 mps 735 mmHg 45%

    Tomorrow, 24 July, Monday

    Time Temperature Precipitation Wind Pressure Humidity
    00:00 +32°C° 0 mm 9 mps 735 mmHg 46%
    01:00 +31°C° 0 mm 9 mps 735 mmHg 48%
    02:00 +31°C° 0 mm 9 mps 735 mmHg 49%
    03:00 +29°C° 0 mm 9 mps 735 mmHg 51%
    04:00 +29°C° 0 mm 10 mps 735 mmHg 53%
    05:00 +29°C° 0 mm 10 mps 735 mmHg 56%
    06:00 +29°C° 0 mm 10 mps 736 mmHg 58%
    07:00 +31°C° 0 mm 9 mps 736 mmHg 55%
    08:00 +32°C° 0 mm 9 mps 736 mmHg 52%
    09:00 +33°C° 0 mm 9 mps 736 mmHg 48%
    10:00 +33°C° 0 mm 9 mps 736 mmHg 46%
    11:00 +34°C° 0 mm 9 mps 735 mmHg 44%
    12:00 +36°C° 0 mm 10 mps 735 mmHg 42%
    13:00 +34°C° 0 mm 10 mps 735 mmHg 43%
    14:00 +34°C° 0 mm 10 mps 735 mmHg 43%
    15:00 +34°C° 0 mm 10 mps 734 mmHg 43%
    16:00 +34°C° 0 mm 9 mps 734 mmHg 45%
    17:00 +33°C° 0 mm 9 mps 734 mmHg 47%
    18:00 +32°C° 0 mm 9 mps 734 mmHg 49%
    19:00 +32°C° 0 mm 9 mps 734 mmHg 51%
    20:00 +31°C° 0 mm 9 mps 734 mmHg 52%
    21:00 +29°C° 0 mm 8 mps 734 mmHg 53%
    22:00 +29°C° 0 mm 8 mps 734 mmHg 54%
    23:00 +29°C° 0 mm 7 mps 734 mmHg 54%

    Day after tomorrow, 25 July, Tuesday

    Time Temperature Precipitation Wind Pressure Humidity
    00:00 +28°C° 0 mm 7 mps 734 mmHg 55%
    01:00 +28°C° 0 mm 6 mps 733 mmHg 55%
    02:00 +28°C° 0 mm 6 mps 733 mmHg 56%
    03:00 +27°C° 0 mm 6 mps 733 mmHg 56%
    04:00 +28°C° 0 mm 5 mps 733 mmHg 55%
    05:00 +28°C° 0 mm 5 mps 733 mmHg 53%
    06:00 +28°C° 0 mm 5 mps 733 mmHg 52%
    07:00 +30°C° 0 mm 5 mps 733 mmHg 47%
    08:00 +32°C° 0 mm 5 mps 733 mmHg 42%
    09:00 +33°C° 0 mm 5 mps 733 mmHg 37%
    10:00 +34°C° 0 mm 5 mps 733 mmHg 35%
    11:00 +35°C° 0 mm 5 mps 732 mmHg 33%
    12:00 +36°C° 0 mm 5 mps 732 mmHg 31%
    13:00 +36°C° 0 mm 5 mps 732 mmHg 31%
    14:00 +36°C° 0 mm 6 mps 732 mmHg 32%
    15:00 +38°C° 0 mm 6 mps 731 mmHg 32%
    16:00 +36°C° 0 mm 6 mps 731 mmHg 34%
    17:00 +35°C° 0 mm 6 mps 731 mmHg 36%
    18:00 +34°C° 0 mm 7 mps 731 mmHg 38%
    19:00 +33°C° 0 mm 6 mps 732 mmHg 40%
    20:00 +33°C° 0 mm 6 mps 732 mmHg 42%
    21:00 +32°C° 0 mm 6 mps 732 mmHg 43%
    22:00 +30°C° 0 mm 5 mps 732 mmHg 44%
    23:00 +30°C° 0 mm 5 mps 732 mmHg 45%

    26 July, Wednesday

    Time Temperature Precipitation Wind Pressure Humidity
    00:00 +30°C° 0 mm 4 mps 732 mmHg 45%
    01:00 +29°C° 0 mm 4 mps 732 mmHg 45%
    02:00 +29°C° 0 mm 4 mps 731 mmHg 46%
    03:00 +29°C° 0 mm 4 mps 731 mmHg 46%
    04:00 +29°C° 0 mm 3 mps 731 mmHg 46%
    05:00 +29°C° 0 mm 3 mps 732 mmHg 45%
    06:00 +29°C° 0 mm 3 mps 732 mmHg 44%
    07:00 +30°C° 0 mm 3 mps 732 mmHg 41%
    08:00 +33°C° 0 mm 3 mps 732 mmHg 38%
    09:00 +34°C° 0 mm 3 mps 732 mmHg 34%
    10:00 +35°C° 0 mm 3 mps 732 mmHg 32%
    11:00 +36°C° 0 mm 3 mps 732 mmHg 30%
    12:00 +37°C° 0 mm 3 mps 732 mmHg 29%
    13:00 +37°C° 0 mm 4 mps 732 mmHg 29%
    14:00 +37°C° 0 mm 4 mps 732 mmHg 30%
    15:00 +37°C° 0 mm 5 mps 732 mmHg 30%
    16:00 +37°C° 0 mm 5 mps 732 mmHg 32%
    17:00 +36°C° 0 mm 5 mps 732 mmHg 34%
    18:00 +35°C° 0 mm 5 mps 732 mmHg 36%
    19:00 +34°C° 0 mm 5 mps 732 mmHg 39%
    20:00 +34°C° 0 mm 4 mps 733 mmHg 41%
    21:00 +33°C° 0 mm 4 mps 733 mmHg 43%
    22:00 +31°C° 0 mm 3 mps 733 mmHg 44%
    23:00 +31°C° 0 mm 3 mps 733 mmHg 45%

    27 July, Thursday

    Time Temperature Precipitation Wind Pressure Humidity
    00:00 +31°C° 0 mm 3 mps 733 mmHg 45%
    01:00 +30°C° 0 mm 3 mps 733 mmHg 46%
    02:00 +30°C° 0 mm 3 mps 733 mmHg 46%
    03:00 +30°C° 0 mm 3 mps 733 mmHg 46%
    04:00 +30°C° 0 mm 3 mps 733 mmHg 44%
    05:00 +30°C° 0 mm 2 mps 734 mmHg 43%
    06:00 +31°C° 0 mm 2 mps 734 mmHg 41%
    07:00 +33°C° 0 mm 3 mps 734 mmHg 37%
    08:00 +35°C° 0 mm 3 mps 734 mmHg 34%
    09:00 +36°C° 0 mm 3 mps 735 mmHg 30%
    10:00 +37°C° 0 mm 3 mps 734 mmHg 29%
    11:00 +38°C° 0 mm 3 mps 734 mmHg 28%
    12:00 +38°C° 0 mm 3 mps 734 mmHg 27%
    13:00 +38°C° 0 mm 4 mps 734 mmHg 28%
    14:00 +39°C° 0 mm 5 mps 734 mmHg 29%
    15:00 +39°C° 0 mm 6 mps 734 mmHg 30%
    16:00 +39°C° 0 mm 6 mps 734 mmHg 31%
    17:00 +38°C° 0 mm 6 mps 734 mmHg 33%
    18:00 +36°C° 0 mm 6 mps 734 mmHg 35%
    19:00 +35°C° 0 mm 6 mps 735 mmHg 36%
    20:00 +34°C° 0 mm 5 mps 735 mmHg 37%
    21:00 +34°C° 0 mm 5 mps 735 mmHg 38%
    22:00 +33°C° 0 mm 5 mps 735 mmHg 39%
    23:00 +33°C° 0 mm 4 mps 735 mmHg 40%

    28 July, Friday

    Time Temperature Precipitation Wind Pressure Humidity
    00:00 +33°C° 0 mm 4 mps 735 mmHg 40%
    01:00 +32°C° 0 mm 4 mps 735 mmHg 41%
    02:00 +32°C° 0 mm 4 mps 735 mmHg 41%
    03:00 +32°C° 0 mm 4 mps 735 mmHg 42%
    04:00 +32°C° 0 mm 4 mps 735 mmHg 41%
    05:00 +32°C° 0 mm 4 mps 736 mmHg 41%
    06:00 +32°C° 0 mm 4 mps 736 mmHg 40%
    07:00 +33°C° 0 mm 4 mps 736 mmHg 37%
    08:00 +35°C° 0 mm 4 mps 736 mmHg 35%
    09:00 +36°C° 0 mm 4 mps 737 mmHg 32%
    10:00 +37°C° 0 mm 5 mps 737 mmHg 30%
    11:00 +37°C° 0 mm 5 mps 737 mmHg 29%
    12:00 +39°C° 0 mm 5 mps 736 mmHg 28%
    13:00 +39°C° 0 mm 6 mps 736 mmHg 28%
    14:00 +39°C° 0 mm 6 mps 736 mmHg 28%
    15:00 +39°C° 0 mm 6 mps 736 mmHg 28%
    16:00 +38°C° 0 mm 6 mps 736 mmHg 29%
    17:00 +36°C° 0 mm 6 mps 737 mmHg 30%
    18:00 +36°C° 0 mm 7 mps 737 mmHg 31%
    19:00 +35°C° 0 mm 6 mps 737 mmHg 32%
    20:00 +34°C° 0 mm 6 mps 737 mmHg 33%
    21:00 +34°C° 0 mm 6 mps 738 mmHg 34%
    22:00 +33°C° 0 mm 6 mps 738 mmHg 35%
    23:00 +33°C° 0 mm 5 mps 738 mmHg 35%
    Show more